TimeCDT,TemperatureF,Dew PointF,Humidity,Sea Level PressureIn,VisibilityMPH,Wind Direction,Wind SpeedMPH,Gust SpeedMPH,PrecipitationIn,Events,Conditions,WindDirDegrees,DateUTC
12:15 AM,51.8,33.8,50,29.82,10.0,WSW,19.6,31.1,N/A,,Unknown,250,2012-10-04 05:15:00
12:35 AM,48.2,33.8,58,29.84,10.0,WSW,21.9,28.8,N/A,,Unknown,250,2012-10-04 05:35:00
12:55 AM,48.2,35.6,62,29.83,10.0,West,25.3,29.9,N/A,,Unknown,260,2012-10-04 05:55:00
1:15 AM,48.2,35.6,62,29.83,10.0,West,27.6,33.4,N/A,,Unknown,260,2012-10-04 06:15:00
1:35 AM,48.2,35.6,62,29.85,10.0,West,24.2,38.0,N/A,,Unknown,270,2012-10-04 06:35:00
1:55 AM,48.2,35.6,62,29.86,8.0,West,28.8,46.0,N/A,,Unknown,270,2012-10-04 06:55:00
2:15 AM,46.4,35.6,66,29.88,10.0,West,33.4,41.4,N/A,,Unknown,270,2012-10-04 07:15:00
2:35 AM,46.4,33.8,62,29.91,9.0,West,29.9,39.1,N/A,,Unknown,280,2012-10-04 07:35:00
2:55 AM,44.6,33.8,66,29.89,10.0,West,31.1,38.0,N/A,,Unknown,280,2012-10-04 07:55:00
3:15 AM,44.6,33.8,66,29.89,10.0,West,31.1,36.8,N/A,,Unknown,280,2012-10-04 08:15:00
3:35 AM,44.6,33.8,66,29.89,10.0,West,31.1,40.3,N/A,,Unknown,280,2012-10-04 08:35:00
3:55 AM,44.6,33.8,66,29.91,10.0,WNW,26.5,35.7,N/A,,Unknown,290,2012-10-04 08:55:00
4:15 AM,44.6,33.8,66,29.91,10.0,West,32.2,42.6,N/A,,Unknown,280,2012-10-04 09:15:00
4:35 AM,-9999,-9999,N/A,29.88,6.0,WNW,44.9,49.5,N/A,,Unknown,290,2012-10-04 09:35:00
4:55 AM,42.8,32.0,66,29.94,10.0,West,32.2,41.4,N/A,,Unknown,280,2012-10-04 09:55:00
5:15 AM,41.0,30.2,65,29.95,10.0,WNW,27.6,38.0,N/A,,Unknown,290,2012-10-04 10:15:00
5:35 AM,41.0,30.2,65,29.98,10.0,West,21.9,-,N/A,,Unknown,280,2012-10-04 10:35:00
5:55 AM,39.2,30.2,70,29.98,10.0,West,17.3,-,N/A,,Unknown,280,2012-10-04 10:55:00
6:15 AM,39.2,28.4,65,30.00,10.0,West,18.4,-,N/A,,Unknown,270,2012-10-04 11:15:00
6:35 AM,39.2,28.4,65,30.01,10.0,West,21.9,31.1,N/A,,Unknown,280,2012-10-04 11:35:00
6:55 AM,39.2,28.4,65,30.02,10.0,WNW,23.0,27.6,N/A,,Unknown,290,2012-10-04 11:55:00
7:15 AM,39.2,28.4,65,30.01,10.0,WNW,19.6,29.9,N/A,,Unknown,290,2012-10-04 12:15:00
7:35 AM,39.2,28.4,65,30.02,10.0,WNW,24.2,32.2,N/A,,Unknown,290,2012-10-04 12:35:00
7:55 AM,39.2,28.4,65,30.04,10.0,WNW,23.0,27.6,N/A,,Unknown,290,2012-10-04 12:55:00
8:15 AM,39.2,28.4,65,30.05,9.0,WNW,21.9,29.9,N/A,,Unknown,290,2012-10-04 13:15:00
8:35 AM,39.2,28.4,65,30.06,10.0,WNW,23.0,29.9,N/A,,Unknown,300,2012-10-04 13:35:00
8:55 AM,41.0,28.4,61,30.06,10.0,WNW,25.3,32.2,N/A,,Unknown,300,2012-10-04 13:55:00
9:15 AM,41.0,28.4,61,30.07,10.0,NW,25.3,33.4,N/A,,Unknown,310,2012-10-04 14:15:00
9:35 AM,-9999,-9999,N/A,30.07,10.0,NW,26.5,35.7,N/A,,Unknown,310,2012-10-04 14:35:00
9:55 AM,42.8,28.4,57,30.08,10.0,NW,27.6,32.2,N/A,,Unknown,310,2012-10-04 14:55:00
10:15 AM,42.8,28.4,57,30.11,8.0,Calm,Calm,-,N/A,,Unknown,0,2012-10-04 15:15:00
10:35 AM,42.8,28.4,57,30.11,10.0,Calm,Calm,-,N/A,,Unknown,0,2012-10-04 15:35:00
10:55 AM,44.6,28.4,53,30.12,10.0,Calm,Calm,-,N/A,,Unknown,0,2012-10-04 15:55:00
11:15 AM,-9999,-9999,N/A,30.11,10.0,Calm,Calm,-,N/A,,Unknown,0,2012-10-04 16:15:00
11:35 AM,46.4,28.4,50,30.13,10.0,Calm,Calm,-,N/A,,Unknown,0,2012-10-04 16:35:00
11:55 AM,-9999,-9999,N/A,30.13,10.0,Calm,Calm,-,N/A,,Unknown,0,2012-10-04 16:55:00
12:15 PM,46.4,28.4,50,30.15,10.0,Calm,Calm,-,N/A,,Unknown,0,2012-10-04 17:15:00
12:35 PM,46.4,26.6,46,30.15,10.0,Calm,Calm,-,N/A,,Unknown,0,2012-10-04 17:35:00
12:55 PM,46.4,26.6,46,30.16,10.0,Calm,Calm,-,N/A,,Unknown,0,2012-10-04 17:55:00
1:35 PM,46.4,26.6,46,30.17,10.0,Calm,Calm,-,N/A,,Unknown,0,2012-10-04 18:35:00
1:55 PM,46.4,26.6,46,30.18,10.0,Calm,Calm,-,N/A,,Unknown,0,2012-10-04 18:55:00
2:15 PM,48.2,26.6,43,30.17,10.0,Calm,Calm,-,N/A,,Unknown,0,2012-10-04 19:15:00
2:35 PM,48.2,26.6,43,30.17,10.0,Calm,Calm,-,N/A,,Unknown,0,2012-10-04 19:35:00
2:55 PM,48.2,26.6,43,30.18,10.0,Calm,Calm,-,N/A,,Unknown,0,2012-10-04 19:55:00
3:15 PM,48.2,26.6,43,30.18,10.0,Calm,Calm,-,N/A,,Unknown,0,2012-10-04 20:15:00
3:35 PM,48.2,26.6,43,30.18,10.0,Calm,Calm,-,N/A,,Unknown,0,2012-10-04 20:35:00
3:55 PM,-9999,-9999,N/A,30.17,10.0,Calm,Calm,-,N/A,,Unknown,0,2012-10-04 20:55:00
4:15 PM,50.0,26.6,40,30.18,10.0,Calm,Calm,-,N/A,,Unknown,0,2012-10-04 21:15:00
4:35 PM,48.2,26.6,43,30.20,10.0,Calm,Calm,-,N/A,,Unknown,0,2012-10-04 21:35:00
4:55 PM,48.2,24.8,40,30.19,10.0,Calm,Calm,-,N/A,,Unknown,0,2012-10-04 21:55:00
5:15 PM,46.4,24.8,43,30.20,10.0,Calm,Calm,-,N/A,,Unknown,0,2012-10-04 22:15:00
5:35 PM,46.4,24.8,43,30.21,10.0,Calm,Calm,-,N/A,,Unknown,0,2012-10-04 22:35:00
5:55 PM,44.6,24.8,46,30.21,10.0,Calm,Calm,-,N/A,,Unknown,0,2012-10-04 22:55:00
6:15 PM,44.6,24.8,46,30.22,10.0,Calm,Calm,-,N/A,,Unknown,0,2012-10-04 23:15:00
6:35 PM,44.6,24.8,46,30.22,10.0,Calm,Calm,-,N/A,,Unknown,0,2012-10-04 23:35:00
6:55 PM,44.6,24.8,46,30.23,10.0,Calm,Calm,-,N/A,,Unknown,0,2012-10-04 23:55:00
7:15 PM,42.8,24.8,49,30.23,10.0,Calm,Calm,-,N/A,,Unknown,0,2012-10-05 00:15:00
7:35 PM,42.8,24.8,49,30.24,10.0,Calm,Calm,-,N/A,,Unknown,0,2012-10-05 00:35:00
7:55 PM,42.8,24.8,49,30.24,10.0,Calm,Calm,-,N/A,,Unknown,0,2012-10-05 00:55:00
8:15 PM,42.8,24.8,49,30.24,10.0,Calm,Calm,-,N/A,,Unknown,0,2012-10-05 01:15:00
8:35 PM,42.8,23.0,46,30.24,10.0,Calm,Calm,-,N/A,,Unknown,0,2012-10-05 01:35:00
8:55 PM,42.8,23.0,46,30.25,10.0,Calm,Calm,-,N/A,,Unknown,0,2012-10-05 01:55:00
9:15 PM,42.8,23.0,46,30.25,10.0,Calm,Calm,-,N/A,,Unknown,0,2012-10-05 02:15:00
9:35 PM,42.8,24.8,49,30.25,10.0,Calm,Calm,-,N/A,,Unknown,0,2012-10-05 02:35:00
9:55 PM,42.8,23.0,46,30.25,10.0,Calm,Calm,-,N/A,,Unknown,0,2012-10-05 02:55:00
10:15 PM,42.8,23.0,46,30.25,10.0,Calm,Calm,-,N/A,,Unknown,0,2012-10-05 03:15:00
10:35 PM,42.8,21.2,42,30.25,10.0,Calm,Calm,-,N/A,,Unknown,0,2012-10-05 03:35:00
10:55 PM,41.0,23.0,49,30.24,10.0,Calm,Calm,-,N/A,,Unknown,0,2012-10-05 03:55:00
11:15 PM,41.0,21.2,45,30.24,10.0,Calm,Calm,-,N/A,,Unknown,0,2012-10-05 04:15:00
11:35 PM,39.2,21.2,49,30.23,10.0,Calm,Calm,-,N/A,,Unknown,0,2012-10-05 04:35:00
11:55 PM,39.2,21.2,49,30.23,10.0,Calm,Calm,-,N/A,,Unknown,0,2012-10-05 04:55:00